DL6MAA-11 Weather Reports


Display with metric or nautical units.
time (UTC)temp
F
wind
direction
speed
MPH
gust
MPH
rain 1hr
in
rain 24hr
in
rain mn
in
humidity
%
barometer
mb
20260507050700 48 184 2.0 0.0 0.00 0.00 0.00 76 1009.5
20260507050141 48 277 2.0 0.0 0.00 0.00 0.00 77 1009.5
20260507045654 47 176 2.0 0.0 0.00 0.00 0.00 78 1009.4
20260507045159 47 254 1.0 0.0 0.00 0.00 0.00 79 1009.4
20260507044655 47 153 1.0 0.0 0.00 0.00 0.00 79 1009.4
20260507044201 47 360 1.0 0.0 0.00 0.00 0.00 79 1009.2
20260507043654 47 192 1.0 0.0 0.00 0.00 0.00 79 1009.2
20260507043146 47 194 1.0 0.0 0.00 0.00 0.00 79 1009.2
20260507042657 47 360 1.0 0.0 0.00 0.00 0.00 79 1008.9
20260507042151 47 186 0.0 0.0 0.00 0.00 0.00 79 1008.9
20260507041653 47 360 0.0 0.0 0.00 0.00 0.00 79 1008.9
20260507041201 47 193 0.0 0.0 0.00 0.00 0.00 79 1008.9
20260507040648 47 246 0.0 0.0 0.00 0.00 0.00 79 1008.9
20260507040152 47 242 0.0 0.0 0.00 0.00 0.00 79 1008.9
20260507035659 47 200 0.0 0.0 0.00 0.00 0.00 79 1008.8
20260507035201 47 267 0.0 0.0 0.00 0.00 0.00 79 1008.8
20260507034651 47 194 0.0 0.0 0.00 0.00 0.00 79 1008.8
20260507034201 47 194 0.0 0.0 0.00 0.00 0.00 79 1008.7
20260507033650 47 253 0.0 0.0 0.00 0.00 0.00 79 1008.7
20260507033201 47 253 0.0 0.0 0.00 0.00 0.00 79 1008.7
20260507032646 47 250 0.0 0.0 0.00 0.00 0.00 79 1008.5
20260507032151 47 182 0.0 0.0 0.00 0.00 0.00 79 1008.5
20260507031653 47 205 0.0 0.0 0.00 0.00 0.00 80 1008.5
20260507031158 47 246 1.0 0.0 0.00 0.00 0.00 80 1007.8
20260507030701 47 209 1.0 0.0 0.00 0.00 0.00 80 1007.8
20260507030154 46 203 0.0 0.0 0.00 0.00 0.00 80 1007.8
20260507025701 46 259 1.0 0.0 0.00 0.00 0.00 80 1007.9
20260507025200 46 225 1.0 0.0 0.00 0.00 0.00 81 1007.9
20260507024702 46 360 1.0 0.0 0.00 0.00 0.00 81 1007.9
20260507024149 46 223 0.0 0.0 0.00 0.00 0.00 81 1007.7
20260507023652 46 129 1.0 0.0 0.00 0.00 0.00 81 1007.7
20260507023147 46 360 0.0 0.0 0.00 0.00 0.00 81 1007.7
20260507022655 45 166 0.0 0.0 0.00 0.00 0.00 81 1007.9
20260507022200 45 263 0.0 0.0 0.00 0.00 0.00 80 1007.9
20260507021647 45 236 0.0 0.0 0.00 0.00 0.00 80 1007.9
20260507021146 45 217 0.0 0.0 0.00 0.00 0.00 80 1008.2
20260507020653 45 218 0.0 0.0 0.00 0.00 0.00 79 1008.2
20260507020146 45 218 0.0 0.0 0.00 0.00 0.00 79 1008.2
20260507015659 45 218 0.0 0.0 0.00 0.00 0.00 79 1008.1
20260507015153 45 219 0.0 0.0 0.00 0.00 0.00 79 1008.1
20260507014644 45 219 0.0 0.0 0.00 0.00 0.00 79 1008.1
20260507014152 45 223 0.0 0.0 0.00 0.00 0.00 78 1008.1
20260507013653 45 221 0.0 0.0 0.00 0.00 0.00 78 1008.1
20260507013154 45 219 0.0 0.0 0.00 0.00 0.00 77 1008.1
20260507012653 46 219 0.0 0.0 0.00 0.00 0.00 77 1007.9
20260507012153 46 218 0.0 0.0 0.00 0.00 0.00 77 1007.9
20260507011700 46 219 0.0 0.0 0.00 0.00 0.00 77 1007.9
20260507011147 46 218 0.0 0.0 0.00 0.00 0.00 78 1008.0
20260507010653 46 360 0.0 0.0 0.00 0.00 0.00 78 1008.0
20260507010201 46 217 0.0 0.0 0.00 0.00 0.00 78 1008.0
20260507005650 46 217 0.0 0.0 0.00 0.00 0.00 77 1007.9
20260507005146 46 211 0.0 0.0 0.00 0.00 0.00 77 1007.9
20260507004647 47 215 0.0 0.0 0.00 0.00 0.00 77 1007.9
20260507004152 47 192 0.0 0.0 0.00 0.00 0.00 76 1007.9
20260507003657 47 191 0.0 0.0 0.00 0.00 0.00 76 1007.9
20260507003159 47 193 0.0 0.0 0.00 0.00 0.00 76 1007.9
20260507002645 47 193 0.0 0.0 0.00 0.00 0.00 76 1007.8
20260507002153 47 360 0.0 0.0 0.00 0.00 0.00 76 1007.8
20260507001648 48 195 0.0 0.0 0.00 0.00 0.00 76 1007.8
20260507001156 48 157 0.0 0.0 0.00 0.00 0.00 76 1007.7
20260507000702 48 157 0.0 0.0 0.00 0.00 0.00 76 1007.7
20260507000204 48 157 0.0 0.0 0.00 0.00 0.00 76 1007.7
20260506235655 48 157 0.0 0.0 0.00 0.00 0.00 76 1007.7
20260506235200 48 163 0.0 0.0 0.00 0.00 0.00 76 1007.7
20260506234645 48 190 0.0 0.0 0.00 0.00 0.00 77 1007.7
20260506234159 48 222 0.0 0.0 0.00 0.00 0.00 77 1007.7
20260506233705 48 226 1.0 0.0 0.00 0.00 0.00 77 1007.7
20260506233154 48 215 1.0 0.0 0.00 0.00 0.00 76 1007.7
20260506232649 48 158 0.0 0.0 0.00 0.00 0.00 77 1007.6
20260506232154 48 207 0.0 0.0 0.00 0.00 0.00 77 1007.6
20260506231701 48 184 1.0 0.0 0.00 0.00 0.00 77 1007.6
20260506230704 48 360 1.0 0.0 0.00 0.00 0.00 77 1007.3
20260506230150 48 269 0.0 0.0 0.00 0.00 0.00 77 1007.3
20260506225654 48 218 0.0 0.0 0.00 0.00 0.00 76 1007.3
20260506225203 48 217 0.0 0.0 0.00 0.00 0.00 76 1007.3
20260506224647 48 226 0.0 0.0 0.00 0.00 0.00 76 1007.3
20260506224154 48 230 0.0 0.0 0.00 0.00 0.00 76 1008.1
20260506223700 48 318 1.0 0.0 0.00 0.00 0.00 76 1008.1
20260506223201 48 174 1.0 0.0 0.00 0.00 0.00 76 1008.1
20260506222700 49 157 0.0 0.0 0.00 0.00 0.00 76 1008.1
20260506222148 49 360 1.0 0.0 0.00 0.00 0.00 76 1008.1
20260506221657 49 273 1.0 0.0 0.00 0.00 0.00 76 1008.1
20260506221149 49 155 1.0 0.0 0.00 0.00 0.00 76 1007.2
20260506220655 49 173 1.0 0.0 0.00 0.00 0.00 76 1007.2
20260506220159 49 246 1.0 0.0 0.00 0.00 0.00 76 1007.2
20260506215653 49 225 1.0 0.0 0.00 0.00 0.02 76 1007.1
20260506215201 49 274 1.0 0.0 0.00 0.00 0.02 76 1007.1
20260506214703 49 225 1.0 0.0 0.00 0.00 0.02 76 1007.1
20260506214148 49 360 0.0 0.0 0.00 0.00 0.02 76 1007.1
20260506213656 49 191 0.0 0.0 0.00 0.00 0.02 76 1007.1
20260506213204 49 209 0.0 0.0 0.00 0.00 0.02 76 1007.1
20260506212647 49 360 1.0 0.0 0.00 0.00 0.02 76 1007.1
20260506212150 49 198 1.0 0.0 0.00 0.00 0.02 76 1007.1
20260506211650 49 269 1.0 0.0 0.00 0.00 0.02 76 1007.1
20260506211156 49 259 1.0 0.0 0.00 0.00 0.02 76 1007.2
20260506210657 49 189 1.0 0.0 0.00 0.00 0.02 76 1007.2
20260506210159 49 271 1.0 0.0 0.00 0.00 0.02 76 1007.2
20260506205647 49 360 1.0 0.0 0.00 0.00 0.02 76 1007.0
20260506205152 49 161 1.0 0.0 0.00 0.00 0.02 75 1007.0
20260506204655 49 226 2.0 0.0 0.00 0.00 0.02 75 1007.0
20260506204155 49 244 2.0 0.0 0.00 0.00 0.02 75 1006.7
20260506203644 49 360 3.0 0.0 0.00 0.00 0.02 75 1006.7
20260506203147 49 76 3.0 0.0 0.00 0.00 0.02 75 1006.7
20260506202655 49 195 3.0 0.0 0.00 0.00 0.02 75 1006.7
20260506202150 49 268 4.0 0.0 0.00 0.00 0.02 75 1006.7
20260506201645 49 248 3.0 0.0 0.00 0.00 0.02 75 1006.7
20260506201157 49 281 3.0 0.0 0.00 0.00 0.02 74 1006.7
20260506200649 49 167 2.0 0.0 0.00 0.00 0.02 74 1006.7
20260506200149 49 315 2.0 0.0 0.00 0.00 0.02 74 1006.7
20260506195654 49 205 1.0 0.0 0.00 0.00 0.02 74 1006.8
20260506195205 49 360 1.0 0.0 0.00 0.00 0.02 74 1006.8
20260506194705 49 270 1.0 0.0 0.00 0.00 0.02 74 1006.8
20260506194145 50 257 1.0 0.0 0.00 0.00 0.02 74 1006.6
20260506193653 50 360 1.0 0.0 0.00 0.00 0.02 74 1006.6
20260506193158 50 167 2.0 0.0 0.00 0.00 0.02 73 1006.6
20260506192653 50 360 1.0 0.0 0.00 0.00 0.02 73 1006.7
20260506192201 50 199 0.0 0.0 0.00 0.00 0.02 76 1006.7
20260506191653 50 360 1.0 0.0 0.00 0.00 0.02 73 1006.7
20260506191158 50 161 2.0 0.0 0.00 0.00 0.02 73 1006.5
20260506190704 50 211 1.0 0.0 0.00 0.00 0.02 72 1006.5
20260506190153 51 288 1.0 0.0 0.00 0.00 0.02 72 1006.5
20260506185655 51 198 1.0 0.0 0.00 0.00 0.02 72 1006.3
20260506185200 51 196 2.0 0.0 0.00 0.00 0.02 71 1006.3
20260506184700 51 360 2.0 0.0 0.00 0.00 0.02 71 1006.3
20260506184203 51 360 2.0 0.0 0.00 0.00 0.02 71 1006.3
20260506183702 51 285 2.0 0.0 0.00 0.00 0.02 71 1006.3
20260506183149 51 360 2.0 0.0 0.00 0.00 0.02 71 1006.3
20260506182657 51 155 1.0 0.0 0.00 0.00 0.02 70 1006.3
20260506182203 51 10 1.0 0.0 0.00 0.00 0.02 70 1006.3
20260506181651 52 235 1.0 0.0 0.00 0.00 0.02 70 1006.3
20260506181151 52 360 1.0 0.0 0.00 0.00 0.02 70 1006.0
20260506180706 52 171 1.0 0.0 0.00 0.00 0.02 69 1006.0
20260506180155 52 255 1.0 0.0 0.00 0.00 0.02 69 1006.0
20260506175701 52 329 2.0 0.0 0.00 0.00 0.02 70 1005.9
20260506175151 52 159 2.0 0.0 0.00 0.00 0.02 70 1005.9
20260506174657 52 192 1.0 0.0 0.00 0.00 0.02 70 1005.9
20260506174206 52 360 1.0 0.0 0.00 0.00 0.02 70 1005.4
20260506173655 52 178 2.0 0.0 0.00 0.00 0.02 71 1005.4
20260506173144 52 247 4.0 0.0 0.00 0.00 0.02 71 1005.4
20260506172651 52 248 4.0 0.0 0.00 0.00 0.02 71 1004.9
20260506172153 52 257 4.0 0.0 0.00 0.00 0.02 70 1004.9
20260506171658 52 310 4.0 0.0 0.00 0.00 0.02 70 1004.9
20260506171203 52 360 4.0 0.0 0.00 0.00 0.02 69 1005.3
20260506170649 52 299 6.0 0.0 0.00 0.00 0.02 69 1005.3
20260506170157 53 287 6.0 0.0 0.00 0.00 0.02 68 1005.3
20260506165658 53 191 3.0 0.0 0.00 0.00 0.02 69 1005.3
20260506165156 53 286 4.0 0.0 0.00 0.00 0.02 69 1005.3
20260506164655 53 161 7.0 0.0 0.00 0.00 0.02 68 1005.3
20260506164157 53 360 9.0 0.0 0.00 0.00 0.02 68 1005.1
20260506163657 53 272 8.0 0.0 0.00 0.00 0.02 68 1005.1
20260506163205 54 248 7.0 0.0 0.00 0.00 0.02 67 1005.1
20260506162654 55 254 8.0 0.0 0.00 0.00 0.02 68 1005.0
20260506162157 55 271 7.0 0.0 0.00 0.00 0.02 69 1005.0
20260506161700 55 254 4.0 0.0 0.00 0.00 0.02 73 1005.0
20260506161152 55 273 3.0 0.0 0.00 0.00 0.02 72 1004.8
20260506160658 55 254 5.0 0.0 0.00 0.00 0.02 71 1004.8
20260506160158 54 244 6.0 0.0 0.00 0.00 0.02 73 1004.8
20260506155146 54 272 4.0 0.0 0.00 0.00 0.02 72 1004.4
20260506154652 55 271 4.0 0.0 0.00 0.00 0.02 70 1004.4
20260506154148 56 172 4.0 0.0 0.00 0.00 0.02 67 1003.4
20260506153659 59 360 6.0 0.0 0.00 0.00 0.02 62 1003.4
20260506153202 61 184 4.0 0.0 0.00 0.00 0.02 58 1003.4
20260506152702 62 173 2.0 0.0 0.00 0.00 0.01 62 1003.0
20260506152146 64 145 2.0 0.0 0.00 0.00 0.01 59 1003.0
20260506151652 65 138 2.0 0.0 0.00 0.00 0.01 60 1003.0
20260506151152 65 192 1.0 0.0 0.00 0.00 0.01 59 1003.1
20260506150650 65 195 1.0 0.0 0.00 0.00 0.01 61 1003.1
20260506150154 64 160 2.0 0.0 0.00 0.00 0.01 61 1003.1
20260506145703 64 148 2.0 0.0 0.00 0.00 0.01 61 1002.3
20260506145148 63 148 1.0 0.0 0.00 0.00 0.01 65 1002.3
20260506144655 62 157 1.0 0.0 0.00 0.00 0.01 63 1002.3
20260506144201 63 360 1.0 0.0 0.00 0.00 0.01 63 1002.4
20260506143705 62 144 0.0 0.0 0.00 0.00 0.01 65 1002.4
20260506143200 61 244 0.0 0.0 0.00 0.00 0.01 67 1002.4
20260506142653 60 169 0.0 0.0 0.00 0.00 0.01 65 1002.9
20260506142155 60 188 0.0 0.0 0.00 0.00 0.01 64 1002.9
20260506141656 60 180 0.0 0.0 0.00 0.00 0.01 65 1002.9
20260506141159 59 190 0.0 0.0 0.00 0.00 0.01 66 1002.7
20260506140700 59 188 1.0 0.0 0.00 0.00 0.01 65 1002.7
20260506140145 60 167 2.0 0.0 0.00 0.00 0.01 65 1002.7
20260506135649 60 163 2.0 0.0 0.00 0.00 0.01 68 1003.4
20260506135155 59 153 2.0 0.0 0.00 0.00 0.01 72 1003.4
20260506134656 57 160 1.0 0.0 0.00 0.00 0.01 73 1003.4
20260506133148 59 136 1.0 0.0 0.00 0.00 0.01 67 1003.3
20260506132651 60 171 0.0 0.0 0.00 0.00 0.01 66 1002.7
20260506132154 60 189 0.0 0.0 0.00 0.00 0.01 67 1002.7
20260506131654 60 189 1.0 0.0 0.00 0.00 0.01 67 1002.7
20260506131200 60 123 1.0 0.0 0.00 0.00 0.00 64 1002.6
20260506130702 60 50 0.0 0.0 0.00 0.00 0.00 61 1002.6
20260506130148 60 50 0.0 0.0 0.00 0.00 0.00 61 1002.6
20260506125647 60 50 0.0 0.0 0.00 0.00 0.00 62 1002.3
20260506125154 60 17 0.0 0.0 0.00 0.00 0.00 62 1002.3
20260506124656 61 17 0.0 0.0 0.00 0.00 0.00 61 1002.3
20260506124156 61 360 0.0 0.0 0.00 0.00 0.00 60 1002.3
20260506123701 61 70 0.0 0.0 0.00 0.00 0.00 60 1002.3
20260506123159 62 86 0.0 0.0 0.00 0.00 0.00 59 1002.3
20260506122650 62 52 1.0 0.0 0.00 0.00 0.00 59 1002.3
20260506122158 62 59 0.0 0.0 0.00 0.00 0.00 59 1002.3
20260506121704 62 74 0.0 0.0 0.00 0.00 0.00 59 1002.3
20260506121155 62 103 0.0 0.0 0.00 0.00 0.00 58 1002.2
20260506120702 62 110 0.0 0.0 0.00 0.00 0.00 57 1002.2
20260506120144 62 360 0.0 0.0 0.00 0.00 0.00 57 1002.2
20260506115652 62 360 1.0 0.0 0.00 0.00 0.00 58 1002.2
20260506115154 63 60 2.0 0.0 0.00 0.00 0.00 57 1002.2
20260506114653 62 102 2.0 0.0 0.00 0.00 0.00 58 1002.2
20260506114201 62 42 1.0 0.0 0.00 0.00 0.00 57 1002.4
20260506113704 62 79 0.0 0.0 0.00 0.00 0.00 58 1002.4
20260506113206 62 80 2.0 0.0 0.00 0.00 0.00 58 1002.4
20260506112651 62 59 1.0 0.0 0.00 0.00 0.00 57 1003.4
20260506112159 62 63 1.0 0.0 0.00 0.00 0.00 58 1003.4
20260506111648 63 65 2.0 0.0 0.00 0.00 0.00 55 1003.4
20260506111203 64 58 1.0 0.0 0.00 0.00 0.00 55 1003.1
20260506110650 64 71 1.0 0.0 0.00 0.00 0.00 56 1003.1
20260506110154 63 360 1.0 0.0 0.00 0.00 0.00 56 1003.1
20260506105655 63 28 1.0 0.0 0.00 0.00 0.00 54 1003.4
20260506105156 63 23 1.0 0.0 0.00 0.00 0.00 56 1003.4
20260506104702 64 86 1.0 0.0 0.00 0.00 0.00 55 1003.4
20260506104147 64 92 2.0 0.0 0.00 0.00 0.00 55 1003.7
20260506103653 64 123 1.0 0.0 0.00 0.00 0.00 57 1003.7
20260506103200 64 360 0.0 0.0 0.00 0.00 0.00 56 1003.7
20260506102645 64 72 1.0 0.0 0.00 0.00 0.00 56 1003.9
20260506102152 64 360 1.0 0.0 0.00 0.00 0.00 57 1003.9
20260506101656 63 106 1.0 0.0 0.00 0.00 0.00 56 1003.9
20260506101203 62 55 0.0 0.0 0.00 0.00 0.00 60 1004.0
20260506100649 62 57 0.0 0.0 0.00 0.00 0.00 57 1004.0
20260506100157 62 360 0.0 0.0 0.00 0.00 0.00 56 1004.0
20260506095649 61 110 0.0 0.0 0.00 0.00 0.00 61 1004.1
20260506095153 61 360 1.0 0.0 0.00 0.00 0.00 61 1004.1
20260506094657 61 63 1.0 0.0 0.00 0.00 0.00 57 1004.1
20260506094147 61 93 1.0 0.0 0.00 0.00 0.00 61 1004.1
20260506093655 60 72 1.0 0.0 0.00 0.00 0.00 62 1004.1
20260506093157 60 71 0.0 0.0 0.00 0.00 0.00 62 1004.1
20260506092700 60 336 0.0 0.0 0.00 0.00 0.00 64 1003.4
20260506092150 60 19 0.0 0.0 0.00 0.00 0.00 64 1003.4
20260506091656 59 28 0.0 0.0 0.00 0.00 0.00 64 1003.4
20260506091205 59 19 0.0 0.0 0.00 0.00 0.00 65 1004.1
20260506090648 59 39 0.0 0.0 0.00 0.00 0.00 63 1004.1
20260506090155 59 76 0.0 0.0 0.00 0.00 0.00 61 1004.1
20260506085651 59 52 0.0 0.0 0.00 0.00 0.00 64 1004.1
20260506085156 58 53 0.0 0.0 0.00 0.00 0.00 63 1004.1
20260506084704 59 326 0.0 0.0 0.00 0.00 0.00 64 1004.1
20260506084145 58 326 0.0 0.0 0.00 0.00 0.00 65 1004.3
20260506083650 58 298 0.0 0.0 0.00 0.00 0.00 63 1004.3
20260506083159 58 298 0.0 0.0 0.00 0.00 0.00 64 1004.3
20260506082702 58 279 0.0 0.0 0.00 0.00 0.00 65 1003.4
20260506082158 58 286 0.0 0.0 0.00 0.00 0.00 64 1003.4
20260506081656 58 319 0.0 0.0 0.00 0.00 0.00 66 1003.4
20260506081200 57 321 0.0 0.0 0.00 0.00 0.00 65 1004.0
20260506080650 57 319 0.0 0.0 0.00 0.00 0.00 66 1004.0
20260506080154 57 67 0.0 0.0 0.00 0.00 0.00 67 1004.0
20260506073153 56 360 0.0 0.0 0.00 0.00 0.00 67 1004.2
20260506072657 56 144 0.0 0.0 0.00 0.00 0.00 69 1004.6
20260506072200 56 144 0.0 0.0 0.00 0.00 0.00 71 1004.6
20260506071702 56 144 0.0 0.0 0.00 0.00 0.00 71 1004.6
20260506071203 56 145 0.0 0.0 0.00 0.00 0.00 72 1004.6
20260506070650 55 360 0.0 0.0 0.00 0.00 0.00 71 1004.6
20260506070156 55 360 0.0 0.0 0.00 0.00 0.00 73 1004.6
20260506062205 54 167 0.0 0.0 0.00 0.00 0.00 74 1003.8
20260506061652 54 167 0.0 0.0 0.00 0.00 0.00 76 1003.8
20260506061155 53 360 0.0 0.0 0.00 0.00 0.00 76 1003.8
20260506060658 52 174 0.0 0.0 0.00 0.00 0.00 79 1003.8
20260506060153 52 175 0.0 0.0 0.00 0.00 0.00 79 1003.8
20260506051202 47 176 0.0 0.0 0.00 0.00 0.00 82 1004.4